Flag for U.S.A. Weather past 2 weeks in Bakersfield, California, U.S.A.

Now
55 °F

Sunny.


Feels Like: 55 °F
Forecast: 32 / 53 °F
Wind: 3 mph from North

Location: Meadows Field

Current Time: Dec 28, 2014 at 4:30:29 PM

Latest Report: Dec 28, 2014 at 3:54 PM


Visibility: 10 mi

Pressure: 30.24 "Hg

Humidity: 44%

Dew point: 33 °F

Location of BakersfieldLocation

Historic Weather in Bakersfield — Graph

°F

Bakersfield temperature yesterday

Maximum temperature yesterday: 58 °F (at 2:54 PM)
Minimum temperature yesterday: 35 °F (at 7:54 AM)
Average temperature yesterday: 45 °F

Past Weeks' High & Low Weather Summary

 TemperatureHumidityPressure
High65 °F (Dec 15, 2:54 PM)97% (Dec 14, 6:54 AM)30.37 "Hg (Dec 14, 6:54 AM)
Low35 °F (Dec 27, 7:54 AM)29% (Dec 15, 3:54 PM)29.86 "Hg (Dec 15, 3:54 PM)
Average51 °F75%30.14 "Hg
* Reported Dec 13 2:54 PM — Dec 28 2:54 PM, Bakersfield, Weather by CustomWeather, © 2014

Note: Actual official high and low records may vary slightly from our data, if they occured in-between our weather recording intervals... More about our weather records

Advertising

Bakersfield weather history for previous 24 hours

 ConditionsComfort  
Time TempWeatherWind HumidityBarometerVisibility
2:54 PM
Dec 28
56 °FSunny.6 mph39%30.24 "Hg10 mi
1:54 PM54 °FSunny.5 mph49%30.24 "Hg10 mi
12:54 PM52 °FSunny.No wind50%30.26 "Hg10 mi
11:54 AM48 °FSunny.No wind61%30.28 "Hg9 mi
10:54 AM46 °FSunny.3 mph66%30.32 "Hg9 mi
9:54 AM43 °FSunny.7 mph68%30.34 "Hg10 mi
8:54 AM40 °FSunny.6 mph73%30.35 "Hg10 mi
7:54 AM37 °FSunny.3 mph76%30.34 "Hg10 mi
6:54 AM38 °FClear.No wind73%30.33 "Hg10 mi
5:54 AM38 °FClear.3 mph70%30.31 "Hg10 mi
4:54 AM37 °FClear.No wind76%30.31 "Hg10 mi
3:54 AM36 °FClear.No wind75%30.31 "Hg10 mi
2:54 AM38 °FClear.No wind73%30.32 "Hg10 mi
1:54 AM36 °FClear.No wind79%30.33 "Hg10 mi
12:54 AM39 °FClear.No wind70%30.32 "Hg10 mi
11:54 PM
Dec 27
42 °FClear.No wind65%30.34 "Hg10 mi
10:54 PM40 °FClear.No wind70%30.35 "Hg10 mi
9:54 PM47 °FClear.6 mph56%30.35 "Hg10 mi
8:54 PM47 °FClear.6 mph61%30.36 "Hg10 mi
7:54 PM48 °FClear.7 mph59%30.36 "Hg10 mi
6:54 PM48 °FClear.7 mph61%30.35 "Hg10 mi
5:54 PM49 °FClear.6 mph61%30.34 "Hg10 mi
4:54 PM52 °FClear.6 mph53%30.32 "Hg10 mi
Weather by CustomWeather, © 2014

See weather overviewHow to use our weather pages